| time (UTC) | temp F | wind direction | speed knots | gust knots | rain 1hr in | rain 24hr in | rain mn in | humidity % | barometer mb |
| 20260507031306 | 64 | 294 | 0.9 | 2.6 | 36.63 | 0.00 | 0.00 | 99 | 1003.1 |
| 20260507030310 | 64 | 0 | 0.0 | 0.0 | 36.63 | 0.00 | 0.00 | 99 | 1002.7 |
| 20260507025301 | 65 | 318 | 0.9 | 1.7 | 36.63 | 0.00 | 0.00 | 99 | 1002.5 |
| 20260507024303 | 65 | 0 | 0.0 | 0.0 | 36.63 | 0.00 | 0.00 | 99 | 1002.3 |
| 20260507023307 | 65 | 287 | 1.7 | 4.3 | 36.63 | 0.00 | 0.00 | 99 | 1002.5 |
| 20260507022306 | 65 | 263 | 3.5 | 5.2 | 36.63 | 0.00 | 0.00 | 99 | 1002.4 |
| 20260507021301 | 65 | 267 | 3.5 | 4.3 | 36.63 | 0.00 | 0.00 | 99 | 1002.4 |
| 20260507020309 | 65 | 242 | 4.3 | 6.1 | 36.63 | 0.00 | 0.00 | 99 | 1002.7 |
| 20260507015306 | 65 | 255 | 5.2 | 6.1 | 36.63 | 0.00 | 0.00 | 99 | 1003.0 |
| 20260507014307 | 65 | 248 | 5.2 | 8.7 | 36.63 | 0.00 | 0.00 | 99 | 1003.0 |
| 20260507013303 | 65 | 256 | 4.3 | 6.1 | 36.63 | 0.00 | 0.00 | 99 | 1003.0 |
| 20260507012309 | 65 | 260 | 4.3 | 6.1 | 36.63 | 0.00 | 0.00 | 99 | 1002.9 |
| 20260507011309 | 65 | 267 | 3.5 | 5.2 | 36.63 | 0.00 | 0.00 | 99 | 1002.5 |
| 20260507010304 | 66 | 248 | 5.2 | 7.0 | 36.63 | 0.00 | 0.00 | 98 | 1002.7 |
| 20260507005305 | 66 | 255 | 5.2 | 8.7 | 36.63 | 0.00 | 0.00 | 98 | 1002.6 |
| 20260507003306 | 66 | 246 | 7.0 | 9.6 | 36.63 | 0.00 | 0.00 | 98 | 1002.5 |
| 20260507001306 | 66 | 229 | 7.0 | 8.7 | 36.63 | 0.00 | 0.00 | 98 | 1002.6 |
| 20260507000306 | 66 | 233 | 6.1 | 8.7 | 36.63 | 0.00 | 0.00 | 98 | 1002.2 |
| 20260506235306 | 66 | 252 | 6.1 | 8.7 | 36.63 | 0.00 | 0.00 | 98 | 1002.2 |
| 20260506234308 | 66 | 232 | 6.1 | 8.7 | 36.63 | 0.00 | 0.00 | 98 | 1002.0 |
| 20260506233302 | 66 | 238 | 6.1 | 8.7 | 36.63 | 0.00 | 0.00 | 98 | 1001.9 |
| 20260506232306 | 67 | 221 | 5.2 | 7.8 | 36.63 | 0.00 | 0.00 | 98 | 1001.8 |
| 20260506231302 | 67 | 260 | 7.0 | 9.6 | 36.63 | 0.00 | 0.00 | 98 | 1002.0 |
| 20260506230303 | 67 | 250 | 7.8 | 11.3 | 36.63 | 0.00 | 0.00 | 98 | 1002.0 |
| 20260506225305 | 67 | 266 | 8.7 | 13.0 | 36.63 | 0.00 | 0.00 | 98 | 1002.1 |
| 20260506224303 | 67 | 239 | 10.4 | 13.9 | 36.63 | 0.00 | 0.00 | 97 | 1002.0 |
| 20260506223304 | 67 | 257 | 9.6 | 14.8 | 36.63 | 0.00 | 0.00 | 97 | 1001.9 |
| 20260506222305 | 67 | 255 | 9.6 | 13.9 | 36.63 | 0.00 | 0.00 | 97 | 1001.9 |
| 20260506221303 | 67 | 245 | 10.4 | 14.8 | 36.63 | 0.00 | 0.00 | 97 | 1002.0 |
| 20260506220308 | 67 | 232 | 9.6 | 13.9 | 36.63 | 0.00 | 0.00 | 97 | 1001.9 |
| 20260506215306 | 67 | 249 | 11.3 | 14.8 | 36.63 | 0.00 | 0.00 | 97 | 1002.1 |
| 20260506214304 | 68 | 253 | 7.8 | 11.3 | 36.63 | 0.00 | 0.00 | 97 | 1001.8 |
| 20260506213303 | 67 | 232 | 8.7 | 13.0 | 36.63 | 0.00 | 0.00 | 97 | 1001.7 |
| 20260506212307 | 67 | 249 | 12.2 | 16.5 | 36.63 | 0.00 | 0.00 | 97 | 1001.8 |
| 20260506211302 | 67 | 264 | 9.6 | 14.8 | 36.63 | 0.00 | 0.00 | 97 | 1001.7 |
| 20260506210303 | 67 | 236 | 11.3 | 17.4 | 36.63 | 0.00 | 0.00 | 97 | 1001.8 |
| 20260506205306 | 67 | 270 | 13.0 | 19.1 | 36.63 | 0.00 | 0.00 | 97 | 1001.8 |
| 20260506204307 | 67 | 243 | 12.2 | 16.5 | 36.63 | 0.00 | 0.00 | 97 | 1001.7 |
| 20260506203303 | 67 | 239 | 12.2 | 17.4 | 36.63 | 0.00 | 0.00 | 97 | 1001.6 |
| 20260506202307 | 67 | 269 | 12.2 | 18.2 | 36.63 | 0.00 | 0.00 | 97 | 1001.5 |
| 20260506201301 | 67 | 240 | 10.4 | 15.6 | 36.63 | 0.00 | 0.00 | 97 | 1001.7 |
| 20260506200304 | 67 | 242 | 13.0 | 20.0 | 36.63 | 0.00 | 0.00 | 97 | 1001.8 |
| 20260506195305 | 66 | 273 | 13.0 | 20.0 | 36.63 | 0.00 | 0.00 | 97 | 1001.7 |
| 20260506194313 | 66 | 240 | 13.9 | 19.1 | 36.63 | 0.00 | 0.00 | 97 | 1001.8 |
| 20260506193305 | 66 | 253 | 14.8 | 22.6 | 36.63 | 0.00 | 0.00 | 97 | 1002.1 |
| 20260506192310 | 65 | 249 | 13.9 | 20.9 | 36.63 | 0.00 | 0.00 | 97 | 1002.1 |
| 20260506191305 | 65 | 249 | 13.0 | 19.1 | 36.63 | 0.00 | 0.00 | 98 | 1002.4 |
| 20260506190304 | 65 | 270 | 14.8 | 24.3 | 36.63 | 0.00 | 0.00 | 98 | 1002.3 |
| 20260506185306 | 65 | 263 | 14.8 | 22.6 | 36.63 | 0.00 | 0.00 | 98 | 1002.4 |
| 20260506184303 | 64 | 224 | 13.0 | 20.0 | 36.63 | 0.00 | 0.00 | 98 | 1002.5 |
| 20260506183302 | 64 | 266 | 12.2 | 19.1 | 36.63 | 0.00 | 0.00 | 98 | 1002.7 |
| 20260506182301 | 64 | 231 | 15.6 | 24.3 | 36.63 | 0.00 | 0.00 | 98 | 1002.7 |
| 20260506181302 | 64 | 248 | 16.5 | 26.1 | 36.63 | 0.00 | 0.00 | 98 | 1002.6 |
| 20260506180311 | 64 | 245 | 12.2 | 17.4 | 36.63 | 0.00 | 0.00 | 98 | 1002.8 |
| 20260506175301 | 64 | 248 | 14.8 | 25.2 | 36.63 | 0.00 | 0.00 | 98 | 1003.0 |
| 20260506174304 | 64 | 238 | 13.9 | 20.0 | 36.63 | 0.00 | 0.00 | 98 | 1002.9 |
| 20260506173304 | 64 | 236 | 13.9 | 19.1 | 36.63 | 0.00 | 0.00 | 98 | 1002.9 |
| 20260506172307 | 64 | 226 | 14.8 | 26.1 | 36.63 | 0.00 | 0.00 | 98 | 1002.9 |
| 20260506171303 | 64 | 248 | 11.3 | 18.2 | 36.63 | 0.00 | 0.00 | 99 | 1003.1 |
| 20260506170303 | 63 | 238 | 9.6 | 14.8 | 36.63 | 0.00 | 0.00 | 99 | 1003.1 |
| 20260506165308 | 63 | 246 | 10.4 | 15.6 | 36.63 | 0.00 | 0.00 | 99 | 1003.0 |
| 20260506164304 | 63 | 232 | 8.7 | 13.9 | 36.63 | 0.00 | 0.00 | 100 | 1003.1 |
| 20260506163304 | 62 | 225 | 8.7 | 15.6 | 36.63 | 0.00 | 0.00 | 100 | 1003.3 |
| 20260506162306 | 62 | 243 | 8.7 | 14.8 | 36.63 | 0.00 | 0.00 | 100 | 1003.6 |
| 20260506161301 | 62 | 231 | 8.7 | 11.3 | 36.63 | 0.00 | 0.00 | 100 | 1003.6 |
| 20260506160311 | 62 | 158 | 9.6 | 16.5 | 36.63 | 0.00 | 0.00 | 100 | 1003.5 |
| 20260506155305 | 62 | 224 | 9.6 | 14.8 | 36.63 | 0.00 | 0.00 | 100 | 1004.0 |
| 20260506154303 | 63 | 249 | 9.6 | 17.4 | 36.63 | 0.00 | 0.00 | 100 | 1004.3 |
| 20260506153304 | 63 | 235 | 11.3 | 17.4 | 36.63 | 0.00 | 0.00 | 99 | 1004.4 |
| 20260506152305 | 64 | 231 | 11.3 | 16.5 | 36.63 | 0.00 | 0.00 | 98 | 1004.2 |
| 20260506151310 | 64 | 226 | 11.3 | 18.2 | 36.63 | 0.00 | 0.00 | 98 | 1004.3 |
| 20260506150304 | 64 | 239 | 12.2 | 20.9 | 36.63 | 0.00 | 0.00 | 97 | 1004.2 |
| 20260506145305 | 65 | 233 | 13.9 | 22.6 | 36.63 | 0.00 | 0.00 | 96 | 1004.3 |
| 20260506144303 | 65 | 232 | 13.0 | 21.7 | 36.63 | 0.00 | 0.00 | 94 | 1004.2 |
| 20260506143304 | 66 | 240 | 13.9 | 21.7 | 36.63 | 0.00 | 0.00 | 93 | 1004.3 |
| 20260506142306 | 66 | 229 | 14.8 | 23.5 | 36.63 | 0.00 | 0.00 | 92 | 1004.4 |
| 20260506141301 | 66 | 233 | 13.0 | 22.6 | 36.63 | 0.00 | 0.00 | 92 | 1004.4 |
| 20260506140306 | 66 | 246 | 11.3 | 17.4 | 36.63 | 0.00 | 0.00 | 91 | 1004.3 |
| 20260506135307 | 67 | 243 | 11.3 | 16.5 | 36.63 | 0.00 | 0.00 | 90 | 1004.3 |
| 20260506134308 | 67 | 242 | 15.6 | 30.4 | 36.63 | 0.00 | 0.00 | 89 | 1004.2 |
| 20260506133302 | 67 | 243 | 13.9 | 20.0 | 36.63 | 0.00 | 0.00 | 89 | 1004.0 |
| 20260506132307 | 66 | 224 | 13.9 | 20.0 | 36.63 | 0.00 | 0.00 | 90 | 1004.0 |
| 20260506131301 | 66 | 238 | 13.9 | 21.7 | 36.63 | 0.00 | 0.00 | 90 | 1004.1 |
| 20260506130312 | 66 | 222 | 14.8 | 21.7 | 36.63 | 0.00 | 0.00 | 90 | 1004.1 |
| 20260506125305 | 66 | 235 | 14.8 | 23.5 | 36.63 | 0.00 | 0.00 | 90 | 1004.2 |
| 20260506123303 | 66 | 243 | 13.9 | 20.0 | 36.63 | 0.00 | 0.00 | 91 | 1004.3 |
| 20260506122309 | 65 | 238 | 13.9 | 21.7 | 36.63 | 0.00 | 0.00 | 92 | 1004.3 |
| 20260506121302 | 65 | 226 | 13.0 | 20.0 | 36.63 | 0.00 | 0.00 | 93 | 1004.3 |
| 20260506120304 | 65 | 233 | 12.2 | 20.0 | 36.63 | 0.00 | 0.00 | 94 | 1004.2 |
| 20260506115307 | 65 | 233 | 13.9 | 21.7 | 36.63 | 0.00 | 0.00 | 94 | 1004.3 |
| 20260506114312 | 65 | 238 | 12.2 | 19.1 | 36.63 | 0.00 | 0.00 | 95 | 1004.2 |
| 20260506113305 | 64 | 231 | 11.3 | 19.1 | 36.63 | 0.00 | 0.00 | 96 | 1004.0 |
| 20260506112306 | 64 | 225 | 10.4 | 19.1 | 36.63 | 0.00 | 0.00 | 96 | 1004.1 |
| 20260506111302 | 64 | 242 | 9.6 | 17.4 | 36.63 | 0.00 | 0.00 | 96 | 1004.1 |
| 20260506110306 | 64 | 232 | 10.4 | 18.2 | 36.63 | 0.00 | 0.00 | 96 | 1004.0 |
| 20260506105304 | 64 | 212 | 9.6 | 14.8 | 36.63 | 0.00 | 0.00 | 96 | 1004.1 |
| 20260506104304 | 64 | 217 | 10.4 | 13.9 | 36.63 | 0.00 | 0.00 | 96 | 1003.9 |
| 20260506103303 | 64 | 243 | 10.4 | 14.8 | 36.63 | 0.00 | 0.00 | 96 | 1004.0 |
| 20260506102305 | 64 | 228 | 10.4 | 16.5 | 36.63 | 0.00 | 0.00 | 96 | 1004.1 |
| 20260506101301 | 64 | 224 | 10.4 | 20.0 | 36.63 | 0.00 | 0.00 | 96 | 1004.2 |
| 20260506100303 | 64 | 242 | 10.4 | 15.6 | 36.63 | 0.00 | 0.00 | 97 | 1004.0 |
| 20260506095305 | 64 | 224 | 10.4 | 15.6 | 36.63 | 0.00 | 0.00 | 97 | 1004.0 |
| 20260506094307 | 64 | 232 | 8.7 | 12.2 | 36.63 | 0.00 | 0.00 | 97 | 1003.9 |
| 20260506093303 | 64 | 214 | 8.7 | 13.0 | 36.63 | 0.00 | 0.00 | 97 | 1004.0 |
| 20260506092306 | 64 | 243 | 8.7 | 14.8 | 36.63 | 0.00 | 0.00 | 97 | 1004.0 |
| 20260506091303 | 64 | 239 | 7.8 | 13.0 | 36.63 | 0.00 | 0.00 | 96 | 1004.0 |
| 20260506090306 | 64 | 232 | 7.8 | 14.8 | 36.63 | 0.00 | 0.00 | 96 | 1004.0 |
| 20260506085305 | 64 | 231 | 7.0 | 11.3 | 36.63 | 0.00 | 0.00 | 96 | 1003.9 |
| 20260506084305 | 64 | 229 | 8.7 | 13.0 | 36.63 | 0.00 | 0.00 | 96 | 1003.9 |
| 20260506083303 | 65 | 221 | 9.6 | 14.8 | 36.63 | 0.00 | 0.00 | 96 | 1003.8 |
| 20260506082305 | 65 | 250 | 10.4 | 16.5 | 36.63 | 0.00 | 0.00 | 96 | 1003.8 |
| 20260506081301 | 65 | 245 | 8.7 | 12.2 | 36.63 | 0.00 | 0.00 | 96 | 1003.9 |
| 20260506080305 | 65 | 218 | 9.6 | 14.8 | 36.63 | 0.00 | 0.00 | 96 | 1004.0 |
| 20260506073304 | 65 | 249 | 10.4 | 16.5 | 36.63 | 0.00 | 0.00 | 95 | 1004.0 |
| 20260506072302 | 66 | 240 | 11.3 | 16.5 | 36.63 | 0.00 | 0.00 | 95 | 1004.1 |
| 20260506071301 | 66 | 246 | 11.3 | 16.5 | 36.63 | 0.00 | 0.00 | 94 | 1004.0 |
| 20260506070303 | 67 | 229 | 10.4 | 16.5 | 36.63 | 0.00 | 0.00 | 94 | 1004.0 |
| 20260506062301 | 68 | 256 | 11.3 | 17.4 | 36.63 | 0.00 | 0.00 | 92 | 1004.1 |
| 20260506061303 | 68 | 215 | 10.4 | 15.6 | 36.63 | 0.00 | 0.00 | 92 | 1004.2 |
| 20260506060309 | 68 | 217 | 10.4 | 16.5 | 36.63 | 0.00 | 0.00 | 92 | 1004.2 |
| 20260506051302 | 67 | 214 | 7.8 | 16.5 | 36.63 | 0.00 | 0.00 | 93 | 1004.5 |
| 20260506050304 | 67 | 229 | 9.6 | 17.4 | 36.63 | 0.00 | 0.00 | 92 | 1004.5 |
| 20260506044304 | 67 | 235 | 8.7 | 13.0 | 36.63 | 0.00 | 0.00 | 92 | 1004.6 |
| 20260506043308 | 67 | 249 | 7.8 | 12.2 | 36.63 | 0.00 | 0.00 | 90 | 1004.6 |
| 20260506042305 | 68 | 218 | 9.6 | 13.9 | 36.63 | 0.00 | 0.00 | 89 | 1004.6 |
| 20260506041302 | 68 | 229 | 8.7 | 13.9 | 36.63 | 0.00 | 0.00 | 88 | 1004.6 |
| 20260506040303 | 68 | 235 | 7.8 | 14.8 | 36.63 | 0.00 | 0.00 | 87 | 1004.5 |
| 20260506034308 | 69 | 231 | 8.7 | 15.6 | 36.63 | 0.00 | 0.00 | 84 | 1004.4 |
| 20260506033303 | 70 | 205 | 9.6 | 13.9 | 36.63 | 0.00 | 0.00 | 83 | 1004.4 |
| 20260506032308 | 70 | 225 | 9.6 | 16.5 | 36.63 | 0.00 | 0.00 | 82 | 1004.4 |